Year,Month,Day,Hour,Minute,Value (Times are PST for temperature in C)
2012,03,08,00,00,2.20
2012,03,08,00,01,2.20
2012,03,08,00,02,2.20
2012,03,08,00,03,2.20
2012,03,08,00,04,2.20
2012,03,08,00,05,2.20
2012,03,08,00,06,2.20
2012,03,08,00,07,2.20
2012,03,08,00,08,2.20
2012,03,08,00,09,2.20
2012,03,08,00,10,2.20
2012,03,08,00,11,2.10
2012,03,08,00,12,2.10
2012,03,08,00,13,2.10
2012,03,08,00,14,2.10
2012,03,08,00,15,2.10
2012,03,08,00,16,2.10
2012,03,08,00,17,2.10
2012,03,08,00,18,2.10
2012,03,08,00,19,2.10
2012,03,08,00,20,2.10
2012,03,08,00,21,2.10
2012,03,08,00,22,2.10
2012,03,08,00,23,2.10
2012,03,08,00,24,2.10
2012,03,08,00,25,2.10
2012,03,08,00,26,2.00
2012,03,08,00,27,2.00
2012,03,08,00,28,2.00
2012,03,08,00,29,2.00
2012,03,08,00,30,2.00
2012,03,08,00,31,2.00
2012,03,08,00,32,1.90
2012,03,08,00,33,1.90
2012,03,08,00,34,1.90
2012,03,08,00,35,1.90
2012,03,08,00,36,1.90
2012,03,08,00,37,1.90
2012,03,08,00,38,1.90
2012,03,08,00,39,1.90
2012,03,08,00,40,1.90
2012,03,08,00,41,1.90
2012,03,08,00,42,1.80
2012,03,08,00,43,1.80
2012,03,08,00,44,1.80
2012,03,08,00,45,1.80
2012,03,08,00,46,1.80
2012,03,08,00,47,1.80
2012,03,08,00,48,1.80
2012,03,08,00,49,1.80
2012,03,08,00,50,1.80
2012,03,08,00,51,1.80
2012,03,08,00,52,1.80
2012,03,08,00,53,1.80
2012,03,08,00,54,1.80
2012,03,08,00,55,1.80
2012,03,08,00,56,1.70
2012,03,08,00,57,1.70
2012,03,08,00,58,1.70
2012,03,08,00,59,1.70
2012,03,08,01,00,1.70
2012,03,08,01,01,1.70
2012,03,08,01,02,1.70
2012,03,08,01,03,1.70
2012,03,08,01,04,1.70
2012,03,08,01,05,1.70
2012,03,08,01,06,1.70
2012,03,08,01,07,1.80
2012,03,08,01,08,1.80
2012,03,08,01,09,1.80
2012,03,08,01,10,1.80
2012,03,08,01,11,1.80
2012,03,08,01,12,1.80
2012,03,08,01,13,1.80
2012,03,08,01,14,1.80
2012,03,08,01,15,1.80
2012,03,08,01,16,1.80
2012,03,08,01,17,1.80
2012,03,08,01,18,1.80
2012,03,08,01,19,1.80
2012,03,08,01,20,1.80
2012,03,08,01,21,1.80
2012,03,08,01,22,1.80
2012,03,08,01,23,1.80
2012,03,08,01,24,1.80
2012,03,08,01,25,1.80
2012,03,08,01,26,1.80
2012,03,08,01,27,1.80
2012,03,08,01,28,1.80
2012,03,08,01,29,1.80
2012,03,08,01,30,1.80
2012,03,08,01,31,1.80
2012,03,08,01,32,1.80
2012,03,08,01,33,1.80
2012,03,08,01,34,1.80
2012,03,08,01,35,1.80
2012,03,08,01,36,1.80
2012,03,08,01,37,1.80
2012,03,08,01,38,1.80
2012,03,08,01,39,1.80
2012,03,08,01,40,1.80
2012,03,08,01,41,1.80
2012,03,08,01,42,1.80
2012,03,08,01,43,1.80
2012,03,08,01,44,1.70
2012,03,08,01,45,1.70
2012,03,08,01,46,1.70
2012,03,08,01,47,1.70
2012,03,08,01,48,1.70
2012,03,08,01,49,1.70
2012,03,08,01,50,1.70
2012,03,08,01,51,1.70
2012,03,08,01,52,1.70
2012,03,08,01,53,1.70
2012,03,08,01,54,1.70
2012,03,08,01,55,1.80
2012,03,08,01,56,1.80
2012,03,08,01,57,1.70
2012,03,08,01,58,1.70
2012,03,08,01,59,1.70
2012,03,08,02,00,1.70
2012,03,08,02,01,1.70
2012,03,08,02,02,1.70
2012,03,08,02,03,1.70
2012,03,08,02,04,1.80
2012,03,08,02,05,1.70
2012,03,08,02,06,1.70
2012,03,08,02,07,1.80
2012,03,08,02,08,1.80
2012,03,08,02,09,1.80
2012,03,08,02,10,1.80
2012,03,08,02,11,1.80
2012,03,08,02,12,1.80
2012,03,08,02,13,1.80
2012,03,08,02,14,1.80
2012,03,08,02,15,1.80
2012,03,08,02,16,1.80
2012,03,08,02,17,1.80
2012,03,08,02,18,1.80
2012,03,08,02,19,1.80
2012,03,08,02,20,1.80
2012,03,08,02,21,1.80
2012,03,08,02,22,1.80
2012,03,08,02,23,1.80
2012,03,08,02,24,1.80
2012,03,08,02,25,1.80
2012,03,08,02,26,1.80
2012,03,08,02,27,1.80
2012,03,08,02,28,1.80
2012,03,08,02,29,1.80
2012,03,08,02,30,1.80
2012,03,08,02,31,1.80
2012,03,08,02,32,1.80
2012,03,08,02,33,1.80
2012,03,08,02,34,1.80
2012,03,08,02,35,1.80
2012,03,08,02,36,1.80
2012,03,08,02,37,1.80
2012,03,08,02,38,1.80
2012,03,08,02,39,1.80
2012,03,08,02,40,1.80
2012,03,08,02,41,1.80
2012,03,08,02,42,1.80
2012,03,08,02,43,1.80
2012,03,08,02,44,1.80
2012,03,08,02,45,1.80
2012,03,08,02,46,1.70
2012,03,08,02,47,1.70
2012,03,08,02,48,1.70
2012,03,08,02,49,1.70
2012,03,08,02,50,1.80
2012,03,08,02,51,1.80
2012,03,08,02,52,1.80
2012,03,08,02,53,1.80
2012,03,08,02,54,1.80
2012,03,08,02,55,1.80
2012,03,08,02,56,1.80
2012,03,08,02,57,1.80
2012,03,08,02,58,1.80
2012,03,08,02,59,1.80
2012,03,08,03,00,1.80
2012,03,08,03,01,1.80
2012,03,08,03,02,1.80
2012,03,08,03,03,1.80
2012,03,08,03,04,1.80
2012,03,08,03,05,1.80
2012,03,08,03,06,1.80
2012,03,08,03,07,1.90
2012,03,08,03,08,1.90
2012,03,08,03,09,1.80
2012,03,08,03,10,1.80
2012,03,08,03,11,1.80
2012,03,08,03,12,1.80
2012,03,08,03,13,1.80
2012,03,08,03,14,1.80
2012,03,08,03,15,1.80
2012,03,08,03,16,1.80
2012,03,08,03,17,1.80
2012,03,08,03,18,1.80
2012,03,08,03,19,1.80
2012,03,08,03,20,1.80
2012,03,08,03,21,1.80
2012,03,08,03,22,1.80
2012,03,08,03,23,1.80
2012,03,08,03,24,1.80
2012,03,08,03,25,1.80
2012,03,08,03,26,1.80
2012,03,08,03,27,1.80
2012,03,08,03,28,1.80
2012,03,08,03,29,1.80
2012,03,08,03,30,1.80
2012,03,08,03,31,1.80
2012,03,08,03,32,1.80
2012,03,08,03,33,1.80
2012,03,08,03,34,1.80
2012,03,08,03,35,1.80
2012,03,08,03,36,1.80
2012,03,08,03,37,1.80
2012,03,08,03,38,1.80
2012,03,08,03,39,1.80
2012,03,08,03,40,1.80
2012,03,08,03,41,1.80
2012,03,08,03,42,1.80
2012,03,08,03,43,1.80
2012,03,08,03,44,1.80
2012,03,08,03,45,1.80
2012,03,08,03,46,1.80
2012,03,08,03,47,1.80
2012,03,08,03,48,1.80
2012,03,08,03,49,1.80
2012,03,08,03,50,1.80
2012,03,08,03,51,1.80
2012,03,08,03,52,1.80
2012,03,08,03,53,1.80
2012,03,08,03,54,1.80
2012,03,08,03,55,1.80
2012,03,08,03,56,1.80
2012,03,08,03,57,1.80
2012,03,08,03,58,1.80
2012,03,08,03,59,1.80
2012,03,08,04,00,1.80
2012,03,08,04,01,1.80
2012,03,08,04,02,1.80
2012,03,08,04,03,1.80
2012,03,08,04,04,1.80
2012,03,08,04,05,1.90
2012,03,08,04,06,1.90
2012,03,08,04,07,1.90
2012,03,08,04,08,1.90
2012,03,08,04,09,1.90
2012,03,08,04,10,1.90
2012,03,08,04,11,1.90
2012,03,08,04,12,1.90
2012,03,08,04,13,1.90
2012,03,08,04,14,1.90
2012,03,08,04,15,1.90
2012,03,08,04,16,1.90
2012,03,08,04,17,1.90
2012,03,08,04,18,1.90
2012,03,08,04,19,1.90
2012,03,08,04,20,1.90
2012,03,08,04,21,1.90
2012,03,08,04,22,1.90
2012,03,08,04,23,2.00
2012,03,08,04,24,2.00
2012,03,08,04,25,2.00
2012,03,08,04,26,2.00
2012,03,08,04,27,2.00
2012,03,08,04,28,2.00
2012,03,08,04,29,2.10
2012,03,08,04,30,2.10
2012,03,08,04,31,2.10
2012,03,08,04,32,2.10
2012,03,08,04,33,2.10
2012,03,08,04,34,2.10
2012,03,08,04,35,2.10
2012,03,08,04,36,2.10
2012,03,08,04,37,2.10
2012,03,08,04,38,2.10
2012,03,08,04,39,2.10
2012,03,08,04,40,2.10
2012,03,08,04,41,2.10
2012,03,08,04,42,2.10
2012,03,08,04,43,2.10
2012,03,08,04,44,2.10
2012,03,08,04,45,2.10
2012,03,08,04,46,2.10
2012,03,08,04,47,2.10
2012,03,08,04,48,2.10
2012,03,08,04,49,2.10
2012,03,08,04,50,2.10
2012,03,08,04,51,2.10
2012,03,08,04,52,2.10
2012,03,08,04,53,2.10
2012,03,08,04,54,2.10
2012,03,08,04,55,2.10
2012,03,08,04,56,2.10
2012,03,08,04,57,2.10
2012,03,08,04,58,2.10
2012,03,08,04,59,2.10
2012,03,08,05,00,2.10
2012,03,08,05,01,2.10
2012,03,08,05,02,2.10
2012,03,08,05,03,2.10
2012,03,08,05,04,2.00
2012,03,08,05,05,2.00
2012,03,08,05,06,2.00
2012,03,08,05,07,2.00
2012,03,08,05,08,2.00
2012,03,08,05,09,2.00
2012,03,08,05,10,2.00
2012,03,08,05,11,2.00
2012,03,08,05,12,2.00
2012,03,08,05,13,2.00
2012,03,08,05,14,2.00
2012,03,08,05,15,2.00
2012,03,08,05,16,2.00
2012,03,08,05,17,2.00
2012,03,08,05,18,2.00
2012,03,08,05,19,2.00
2012,03,08,05,20,2.10
2012,03,08,05,21,2.10
2012,03,08,05,22,2.10
2012,03,08,05,23,2.10
2012,03,08,05,24,2.10
2012,03,08,05,25,2.10
2012,03,08,05,26,2.10
2012,03,08,05,27,2.10
2012,03,08,05,28,2.10
2012,03,08,05,29,2.10
2012,03,08,05,30,2.10
2012,03,08,05,31,2.10
2012,03,08,05,32,2.10
2012,03,08,05,33,2.10
2012,03,08,05,34,2.10
2012,03,08,05,35,2.10
2012,03,08,05,36,2.10
2012,03,08,05,37,2.10
2012,03,08,05,38,2.10
2012,03,08,05,39,2.10
2012,03,08,05,40,2.10
2012,03,08,05,41,2.10
2012,03,08,05,42,2.10
2012,03,08,05,43,2.10
2012,03,08,05,44,2.10
2012,03,08,05,45,2.10
2012,03,08,05,46,2.10
2012,03,08,05,47,2.10
2012,03,08,05,48,2.00
2012,03,08,05,49,2.10
2012,03,08,05,50,2.10
2012,03,08,05,51,2.10
2012,03,08,05,52,2.10
2012,03,08,05,53,2.10
2012,03,08,05,54,2.10
2012,03,08,05,55,2.10
2012,03,08,05,56,2.10
2012,03,08,05,57,2.10
2012,03,08,05,58,2.10
2012,03,08,05,59,2.10
2012,03,08,06,00,2.10
2012,03,08,06,01,2.10
2012,03,08,06,02,2.10
2012,03,08,06,03,2.10
2012,03,08,06,04,2.10
2012,03,08,06,05,2.10
2012,03,08,06,06,2.10
2012,03,08,06,07,2.10
2012,03,08,06,08,2.10
2012,03,08,06,09,2.20
2012,03,08,06,10,2.20
2012,03,08,06,11,2.20
2012,03,08,06,12,2.20
2012,03,08,06,13,2.20
2012,03,08,06,14,2.20
2012,03,08,06,15,2.20
2012,03,08,06,16,2.20
2012,03,08,06,17,2.20
2012,03,08,06,18,2.20
2012,03,08,06,19,2.20
2012,03,08,06,20,2.20
2012,03,08,06,21,2.20
2012,03,08,06,22,2.20
2012,03,08,06,23,2.20
2012,03,08,06,24,2.20
2012,03,08,06,25,2.20
2012,03,08,06,26,2.20
2012,03,08,06,27,2.20
2012,03,08,06,28,2.20
2012,03,08,06,29,2.20
2012,03,08,06,30,2.20
2012,03,08,06,31,2.20
2012,03,08,06,32,2.20
2012,03,08,06,33,2.20
2012,03,08,06,34,2.20
2012,03,08,06,35,2.20
2012,03,08,06,36,2.20
2012,03,08,06,37,2.20
2012,03,08,06,38,2.20
2012,03,08,06,39,2.20
2012,03,08,06,40,2.20
2012,03,08,06,41,2.20
2012,03,08,06,42,2.20
2012,03,08,06,43,2.20
2012,03,08,06,44,2.20
2012,03,08,06,45,2.20
2012,03,08,06,46,2.20
2012,03,08,06,47,2.20
2012,03,08,06,48,2.30
2012,03,08,06,49,2.30
2012,03,08,06,50,2.30
2012,03,08,06,51,2.30
2012,03,08,06,52,2.30
2012,03,08,06,53,2.30
2012,03,08,06,54,2.30
2012,03,08,06,55,2.30
2012,03,08,06,56,2.40
2012,03,08,06,57,2.40
2012,03,08,06,58,2.40
2012,03,08,06,59,2.40
2012,03,08,07,00,2.40
2012,03,08,07,01,2.40
2012,03,08,07,02,2.40
2012,03,08,07,03,2.40
2012,03,08,07,04,2.40
2012,03,08,07,05,2.40
2012,03,08,07,06,2.40
2012,03,08,07,07,2.40
2012,03,08,07,08,2.40
2012,03,08,07,09,2.40
2012,03,08,07,10,2.30
2012,03,08,07,11,2.30
2012,03,08,07,12,2.30
2012,03,08,07,13,2.30
2012,03,08,07,14,2.30
2012,03,08,07,15,2.30
2012,03,08,07,16,2.30
2012,03,08,07,17,2.30
2012,03,08,07,18,2.30
2012,03,08,07,19,2.40
2012,03,08,07,20,2.40
2012,03,08,07,21,2.40
2012,03,08,07,22,2.40
2012,03,08,07,23,2.40
2012,03,08,07,24,2.40
2012,03,08,07,25,2.40
2012,03,08,07,26,2.40
2012,03,08,07,27,2.40
2012,03,08,07,28,2.40
2012,03,08,07,29,2.40
2012,03,08,07,30,2.40
2012,03,08,07,31,2.40
2012,03,08,07,32,2.40
2012,03,08,07,33,2.40
2012,03,08,07,34,2.40
2012,03,08,07,35,2.40
2012,03,08,07,36,2.40
2012,03,08,07,37,2.50
2012,03,08,07,38,2.50
2012,03,08,07,39,2.50
2012,03,08,07,40,2.60
2012,03,08,07,41,2.60
2012,03,08,07,42,2.60
2012,03,08,07,43,2.60
2012,03,08,07,44,2.60
2012,03,08,07,45,2.60
2012,03,08,07,46,2.60
2012,03,08,07,47,2.60
2012,03,08,07,48,2.70
2012,03,08,07,49,2.70
2012,03,08,07,50,2.70
2012,03,08,07,51,2.70
2012,03,08,07,52,2.70
2012,03,08,07,53,2.70
2012,03,08,07,54,2.70
2012,03,08,07,55,2.70
2012,03,08,07,56,2.70
2012,03,08,07,57,2.70
2012,03,08,07,58,2.70
2012,03,08,07,59,2.70
2012,03,08,08,00,2.70
2012,03,08,08,01,2.80
2012,03,08,08,02,2.80
2012,03,08,08,03,2.80
2012,03,08,08,04,2.80
2012,03,08,08,05,2.90
2012,03,08,08,06,2.90
2012,03,08,08,07,2.90
2012,03,08,08,08,2.90
2012,03,08,08,09,3.00
2012,03,08,08,10,3.00
2012,03,08,08,11,3.10
2012,03,08,08,12,3.20
2012,03,08,08,13,3.20
2012,03,08,08,14,3.20
2012,03,08,08,15,3.20
2012,03,08,08,16,3.20
2012,03,08,08,17,3.20
2012,03,08,08,18,3.20
2012,03,08,08,19,3.20
2012,03,08,08,20,3.20
2012,03,08,08,21,3.20
2012,03,08,08,22,3.20
2012,03,08,08,23,3.20
2012,03,08,08,24,3.20
2012,03,08,08,25,3.20
2012,03,08,08,26,3.10
2012,03,08,08,27,3.10
2012,03,08,08,28,3.10
2012,03,08,08,29,3.10
2012,03,08,08,30,3.20
2012,03,08,08,31,3.20
2012,03,08,08,32,3.20
2012,03,08,08,33,3.20
2012,03,08,08,34,3.20
2012,03,08,08,35,3.20
2012,03,08,08,36,3.20
2012,03,08,08,37,3.20
2012,03,08,08,38,3.20
2012,03,08,08,39,3.30
2012,03,08,08,40,3.30
2012,03,08,08,41,3.30
2012,03,08,08,42,3.30
2012,03,08,08,43,3.30
2012,03,08,08,44,3.30
2012,03,08,08,45,3.40
2012,03,08,08,46,3.40
2012,03,08,08,47,3.40
2012,03,08,08,48,3.40
2012,03,08,08,49,3.50
2012,03,08,08,50,3.50
2012,03,08,08,51,3.60
2012,03,08,08,52,3.60
2012,03,08,08,53,3.60
2012,03,08,08,54,3.60
2012,03,08,08,55,3.70
2012,03,08,08,56,3.70
2012,03,08,08,57,3.70
2012,03,08,08,58,3.80
2012,03,08,08,59,3.80
2012,03,08,09,00,3.80
2012,03,08,09,01,3.90
2012,03,08,09,02,3.90
2012,03,08,09,03,3.90
2012,03,08,09,04,4.00
2012,03,08,09,05,4.10
2012,03,08,09,06,4.10
2012,03,08,09,07,4.20
2012,03,08,09,08,4.20
2012,03,08,09,09,4.20
2012,03,08,09,10,4.30
2012,03,08,09,11,4.30
2012,03,08,09,12,4.30
2012,03,08,09,13,4.30
2012,03,08,09,14,4.40
2012,03,08,09,15,4.40
2012,03,08,09,16,4.50
2012,03,08,09,17,4.50
2012,03,08,09,18,4.60
2012,03,08,09,19,4.60
2012,03,08,09,20,4.70
2012,03,08,09,21,4.70
2012,03,08,09,22,4.80
2012,03,08,09,23,4.80
2012,03,08,09,24,4.80
2012,03,08,09,25,4.90
2012,03,08,09,26,4.90
2012,03,08,09,27,5.00
2012,03,08,09,28,5.00
2012,03,08,09,29,5.10
2012,03,08,09,30,5.20
2012,03,08,09,31,5.20
2012,03,08,09,32,5.30
2012,03,08,09,33,5.40
2012,03,08,09,34,5.50
2012,03,08,09,35,5.50
2012,03,08,09,36,5.60
2012,03,08,09,37,5.60
2012,03,08,09,38,5.60
2012,03,08,09,39,5.70
2012,03,08,09,40,5.70
2012,03,08,09,41,5.70
2012,03,08,09,42,5.80
2012,03,08,09,43,5.80
2012,03,08,09,44,5.80
2012,03,08,09,45,5.90
2012,03,08,09,46,5.90
2012,03,08,09,47,5.90
2012,03,08,09,48,5.90
2012,03,08,09,49,6.00
2012,03,08,09,50,6.00
2012,03,08,09,51,6.00
2012,03,08,09,52,6.10
2012,03,08,09,53,6.10
2012,03,08,09,54,6.20
2012,03,08,09,55,6.20
2012,03,08,09,56,6.20
2012,03,08,09,57,6.20
2012,03,08,09,58,6.20
2012,03,08,09,59,6.30
2012,03,08,10,00,6.30
2012,03,08,10,01,6.30
2012,03,08,10,02,6.30
2012,03,08,10,03,6.30
2012,03,08,10,04,6.40
2012,03,08,10,05,6.40
2012,03,08,10,06,6.40
2012,03,08,10,07,6.40
2012,03,08,10,08,6.50
2012,03,08,10,09,6.50
2012,03,08,10,10,6.50
2012,03,08,10,11,6.50
2012,03,08,10,12,6.60
2012,03,08,10,13,6.60
2012,03,08,10,14,6.60
2012,03,08,10,15,6.60
2012,03,08,10,16,6.60
2012,03,08,10,17,6.60
2012,03,08,10,18,6.60
2012,03,08,10,19,6.70
2012,03,08,10,20,6.70
2012,03,08,10,21,6.70
2012,03,08,10,22,6.70
2012,03,08,10,23,6.70
2012,03,08,10,24,6.70
2012,03,08,10,25,6.70
2012,03,08,10,26,6.70
2012,03,08,10,27,6.80
2012,03,08,10,28,6.80
2012,03,08,10,29,6.80
2012,03,08,10,30,6.80
2012,03,08,10,31,6.90
2012,03,08,10,32,6.90
2012,03,08,10,33,6.90
2012,03,08,10,34,6.90
2012,03,08,10,35,6.90
2012,03,08,10,36,7.00
2012,03,08,10,37,7.00
2012,03,08,10,38,7.00
2012,03,08,10,39,7.10
2012,03,08,10,40,7.10
2012,03,08,10,41,7.20
2012,03,08,10,42,7.20
2012,03,08,10,43,7.30
2012,03,08,10,44,7.30
2012,03,08,10,45,7.30
2012,03,08,10,46,7.40
2012,03,08,10,47,7.40
2012,03,08,10,48,7.40
2012,03,08,10,49,7.50
2012,03,08,10,50,7.50
2012,03,08,10,51,7.60
2012,03,08,10,52,7.60
2012,03,08,10,53,7.60
2012,03,08,10,54,7.70
2012,03,08,10,55,7.70
2012,03,08,10,56,7.80
2012,03,08,10,57,7.80
2012,03,08,10,58,7.80
2012,03,08,10,59,7.80
2012,03,08,11,00,7.80
2012,03,08,11,01,7.80
2012,03,08,11,02,7.90
2012,03,08,11,03,7.90
2012,03,08,11,04,7.90
2012,03,08,11,05,7.90
2012,03,08,11,06,8.00
2012,03,08,11,07,8.00
2012,03,08,11,08,8.10
2012,03,08,11,09,8.10
2012,03,08,11,10,8.20
2012,03,08,11,11,8.20
2012,03,08,11,12,8.20
2012,03,08,11,13,8.20
2012,03,08,11,14,8.20
2012,03,08,11,15,8.20
2012,03,08,11,16,8.20
2012,03,08,11,17,8.20
2012,03,08,11,18,8.20
2012,03,08,11,19,8.20
2012,03,08,11,20,8.20
2012,03,08,11,21,8.20
2012,03,08,11,22,8.30
2012,03,08,11,23,8.30
2012,03,08,11,24,8.30
2012,03,08,11,25,8.40
2012,03,08,11,26,8.40
2012,03,08,11,27,8.40
2012,03,08,11,28,8.40
2012,03,08,11,29,8.50
2012,03,08,11,30,8.60
2012,03,08,11,31,8.70
2012,03,08,11,32,8.70
2012,03,08,11,33,8.80
2012,03,08,11,34,8.80
2012,03,08,11,35,8.90
2012,03,08,11,36,8.90
2012,03,08,11,37,9.00
2012,03,08,11,38,9.10
2012,03,08,11,39,9.10
2012,03,08,11,40,9.10
2012,03,08,11,41,9.10
2012,03,08,11,42,9.20
2012,03,08,11,43,9.20
2012,03,08,11,44,9.20
2012,03,08,11,45,9.20
2012,03,08,11,46,9.20
2012,03,08,11,47,9.10
2012,03,08,11,48,9.10
2012,03,08,11,49,9.10
2012,03,08,11,50,9.00
2012,03,08,11,51,9.00
2012,03,08,11,52,9.00
2012,03,08,11,53,9.10
2012,03,08,11,54,9.10
2012,03,08,11,55,9.10
2012,03,08,11,56,9.10
2012,03,08,11,57,9.10
2012,03,08,11,58,9.10
2012,03,08,11,59,9.10
2012,03,08,12,00,9.10
2012,03,08,12,01,9.00
2012,03,08,12,02,9.00
2012,03,08,12,03,9.00
2012,03,08,12,04,9.10
2012,03,08,12,05,9.10
2012,03,08,12,06,9.10
2012,03,08,12,07,9.20
2012,03,08,12,08,9.20
2012,03,08,12,09,9.20
2012,03,08,12,10,9.20
2012,03,08,12,11,9.30
2012,03,08,12,12,9.30
2012,03,08,12,13,9.30
2012,03,08,12,14,9.30
2012,03,08,12,15,9.30
2012,03,08,12,16,9.40
2012,03,08,12,17,9.50
2012,03,08,12,18,9.50
2012,03,08,12,19,9.60
2012,03,08,12,20,9.60
2012,03,08,12,21,9.60
2012,03,08,12,22,9.60
2012,03,08,12,23,9.70
2012,03,08,12,24,9.80
2012,03,08,12,25,9.80
2012,03,08,12,26,9.90
2012,03,08,12,27,9.90
2012,03,08,12,28,9.90
2012,03,08,12,29,10.00
2012,03,08,12,30,10.00
2012,03,08,12,31,10.00
2012,03,08,12,32,10.00
2012,03,08,12,33,10.00
2012,03,08,12,34,10.00
2012,03,08,12,35,10.00
2012,03,08,12,36,10.10
2012,03,08,12,37,10.10
2012,03,08,12,38,10.10
2012,03,08,12,39,10.10
2012,03,08,12,40,10.10
2012,03,08,12,41,10.20
2012,03,08,12,42,10.20
2012,03,08,12,43,10.30
2012,03,08,12,44,10.30
2012,03,08,12,45,10.40
2012,03,08,12,46,10.40
2012,03,08,12,47,10.50
2012,03,08,12,48,10.50
2012,03,08,12,49,10.60
2012,03,08,12,50,10.60
2012,03,08,12,51,10.60
2012,03,08,12,52,10.70
2012,03,08,12,53,10.70
2012,03,08,12,54,10.80
2012,03,08,12,55,10.80
2012,03,08,12,56,10.80
2012,03,08,12,57,10.80
2012,03,08,12,58,10.90
2012,03,08,12,59,10.90
2012,03,08,13,00,10.80
2012,03,08,13,01,10.80
2012,03,08,13,02,10.80
2012,03,08,13,03,10.90
2012,03,08,13,04,10.90
2012,03,08,13,05,10.90
2012,03,08,13,06,10.90
2012,03,08,13,07,10.90
2012,03,08,13,08,10.90
2012,03,08,13,09,11.00
2012,03,08,13,10,11.00
2012,03,08,13,11,11.00
2012,03,08,13,12,11.00
2012,03,08,13,13,11.00
2012,03,08,13,14,11.00
2012,03,08,13,15,11.00
2012,03,08,13,16,11.00
2012,03,08,13,17,11.10
2012,03,08,13,18,11.10
2012,03,08,13,19,11.00
2012,03,08,13,20,11.00
2012,03,08,13,21,11.00
2012,03,08,13,22,11.00
2012,03,08,13,23,10.90
2012,03,08,13,24,10.90
2012,03,08,13,25,10.90
2012,03,08,13,26,10.80
2012,03,08,13,27,10.80
2012,03,08,13,28,10.70
2012,03,08,13,29,10.70
2012,03,08,13,30,10.70
2012,03,08,13,31,10.60
2012,03,08,13,32,10.60
2012,03,08,13,33,10.60
2012,03,08,13,34,10.60
2012,03,08,13,35,10.60
2012,03,08,13,36,10.60
2012,03,08,13,37,10.60
2012,03,08,13,38,10.60
2012,03,08,13,39,10.60
2012,03,08,13,40,10.60
2012,03,08,13,41,10.50
2012,03,08,13,42,10.50
2012,03,08,13,43,10.40
2012,03,08,13,44,10.40
2012,03,08,13,45,10.30
2012,03,08,13,46,10.30
2012,03,08,13,47,10.30
2012,03,08,13,48,10.30
2012,03,08,13,49,10.30
2012,03,08,13,50,10.30
2012,03,08,13,51,10.30
2012,03,08,13,52,10.30
2012,03,08,13,53,10.20
2012,03,08,13,54,10.10
2012,03,08,13,55,10.00
2012,03,08,13,56,9.90
2012,03,08,13,57,9.80
2012,03,08,13,58,9.80
2012,03,08,13,59,9.80
2012,03,08,14,00,9.80
2012,03,08,14,01,9.80
2012,03,08,14,02,9.80
2012,03,08,14,03,9.80
2012,03,08,14,04,9.80
2012,03,08,14,05,9.80
2012,03,08,14,06,9.80
2012,03,08,14,07,9.80
2012,03,08,14,08,9.90
2012,03,08,14,09,10.00
2012,03,08,14,10,10.20
2012,03,08,14,11,10.20
2012,03,08,14,12,10.30
2012,03,08,14,13,10.30
2012,03,08,14,14,10.30
2012,03,08,14,15,10.20
2012,03,08,14,16,10.20
2012,03,08,14,17,10.20
2012,03,08,14,18,10.20
2012,03,08,14,19,10.20
2012,03,08,14,20,10.20
2012,03,08,14,21,10.20
2012,03,08,14,22,10.20
2012,03,08,14,23,10.30
2012,03,08,14,24,10.30
2012,03,08,14,25,10.40
2012,03,08,14,26,10.40
2012,03,08,14,27,10.50
2012,03,08,14,28,10.50
2012,03,08,14,29,10.50
2012,03,08,14,30,10.60
2012,03,08,14,31,10.60
2012,03,08,14,32,10.70
2012,03,08,14,33,10.60
2012,03,08,14,34,10.60
2012,03,08,14,35,10.50
2012,03,08,14,36,10.50
2012,03,08,14,37,10.50
2012,03,08,14,38,10.60
2012,03,08,14,39,10.50
2012,03,08,14,40,10.50
2012,03,08,14,41,10.50
2012,03,08,14,42,10.50
2012,03,08,14,43,10.50
2012,03,08,14,44,10.60
2012,03,08,14,45,10.60
2012,03,08,14,46,10.60
2012,03,08,14,47,10.60
2012,03,08,14,48,10.50
2012,03,08,14,49,10.50
2012,03,08,14,50,10.40
2012,03,08,14,51,10.30
2012,03,08,14,52,10.20
2012,03,08,14,53,10.20
2012,03,08,14,54,10.10
2012,03,08,14,55,10.00
2012,03,08,14,56,10.00
2012,03,08,14,57,10.00
2012,03,08,14,58,10.00
2012,03,08,14,59,9.90
2012,03,08,15,00,9.90
2012,03,08,15,01,10.00
2012,03,08,15,02,10.00
2012,03,08,15,03,10.10
2012,03,08,15,04,10.10
2012,03,08,15,05,10.10
2012,03,08,15,06,10.10
2012,03,08,15,07,10.10
2012,03,08,15,08,10.20
2012,03,08,15,09,10.20
2012,03,08,15,10,10.20
2012,03,08,15,11,10.30
2012,03,08,15,12,10.30
2012,03,08,15,13,10.30
2012,03,08,15,14,10.30
2012,03,08,15,15,10.40
2012,03,08,15,16,10.50
2012,03,08,15,17,10.50
2012,03,08,15,18,10.60
2012,03,08,15,19,10.70
2012,03,08,15,20,10.80
2012,03,08,15,21,10.90
2012,03,08,15,22,11.10
2012,03,08,15,23,11.10
2012,03,08,15,24,11.30
2012,03,08,15,25,11.40
2012,03,08,15,26,11.50
2012,03,08,15,27,11.70
2012,03,08,15,28,11.80
2012,03,08,15,29,11.80
2012,03,08,15,30,12.00
2012,03,08,15,31,12.10
2012,03,08,15,32,12.10
2012,03,08,15,33,12.20
2012,03,08,15,34,12.20
2012,03,08,15,35,12.20
2012,03,08,15,36,12.20
2012,03,08,15,37,12.20
2012,03,08,15,38,12.20
2012,03,08,15,39,12.20
2012,03,08,15,40,12.20
2012,03,08,15,41,12.10
2012,03,08,15,42,12.00
2012,03,08,15,43,12.00
2012,03,08,15,44,11.90
2012,03,08,15,45,11.80
2012,03,08,15,46,11.70
2012,03,08,15,47,11.60
2012,03,08,15,48,11.60
2012,03,08,15,49,11.50
2012,03,08,15,50,11.50
2012,03,08,15,51,11.40
2012,03,08,15,52,11.30
2012,03,08,15,53,11.30
2012,03,08,15,54,11.20
2012,03,08,15,55,11.20
2012,03,08,15,56,11.20
2012,03,08,15,57,11.10
2012,03,08,15,58,11.10
2012,03,08,15,59,11.00
2012,03,08,16,00,10.90
2012,03,08,16,01,10.90
2012,03,08,16,02,10.90
2012,03,08,16,03,10.80
2012,03,08,16,04,10.80
2012,03,08,16,05,10.80
2012,03,08,16,06,10.80
2012,03,08,16,07,10.70
2012,03,08,16,08,10.70
2012,03,08,16,09,10.70
2012,03,08,16,10,10.70
2012,03,08,16,11,10.70
2012,03,08,16,12,10.70
2012,03,08,16,13,10.70
2012,03,08,16,14,10.70
2012,03,08,16,15,10.60
2012,03,08,16,16,10.60
2012,03,08,16,17,10.60
2012,03,08,16,18,10.60
2012,03,08,16,19,10.60
2012,03,08,16,20,10.60
2012,03,08,16,21,10.50
2012,03,08,16,22,10.50
2012,03,08,16,23,10.60
2012,03,08,16,24,10.50
2012,03,08,16,25,10.50
2012,03,08,16,26,10.50
2012,03,08,16,27,10.40
2012,03,08,16,28,10.40
2012,03,08,16,29,10.40
2012,03,08,16,30,10.40
2012,03,08,16,31,10.40
2012,03,08,16,32,10.40
2012,03,08,16,33,10.40
2012,03,08,16,34,10.40
2012,03,08,16,35,10.40
2012,03,08,16,36,10.30
2012,03,08,16,37,10.30
2012,03,08,16,38,10.30
2012,03,08,16,39,10.30
2012,03,08,16,40,10.20
2012,03,08,16,41,10.20
2012,03,08,16,42,10.20
2012,03,08,16,43,10.20
2012,03,08,16,44,10.20
2012,03,08,16,45,10.20
2012,03,08,16,46,10.20
2012,03,08,16,47,10.20
2012,03,08,16,48,10.20
2012,03,08,16,49,10.20
2012,03,08,16,50,10.20
2012,03,08,16,51,10.20
2012,03,08,16,52,10.20
2012,03,08,16,53,10.20
2012,03,08,16,54,10.20
2012,03,08,16,55,10.20
2012,03,08,16,56,10.20
2012,03,08,16,57,10.20
2012,03,08,16,58,10.20
2012,03,08,16,59,10.20
2012,03,08,17,00,10.10
2012,03,08,17,01,10.10
2012,03,08,17,02,10.10
2012,03,08,17,03,10.00
2012,03,08,17,04,10.00
2012,03,08,17,05,9.90
2012,03,08,17,06,9.90
2012,03,08,17,07,9.90
2012,03,08,17,08,9.90
2012,03,08,17,09,9.90
2012,03,08,17,10,9.90
2012,03,08,17,11,9.90
2012,03,08,17,12,9.90
2012,03,08,17,13,9.90
2012,03,08,17,14,9.90
2012,03,08,17,15,9.90
2012,03,08,17,16,9.80
2012,03,08,17,17,9.80
2012,03,08,17,18,9.80
2012,03,08,17,19,9.80
2012,03,08,17,20,9.80
2012,03,08,17,21,9.80
2012,03,08,17,22,9.80
2012,03,08,17,23,9.80
2012,03,08,17,24,9.80
2012,03,08,17,25,9.70
2012,03,08,17,26,9.70
2012,03,08,17,27,9.70
2012,03,08,17,28,9.70
2012,03,08,17,29,9.70
2012,03,08,17,30,9.70
2012,03,08,17,31,9.70
2012,03,08,17,32,9.70
2012,03,08,17,33,9.60
2012,03,08,17,34,9.60
2012,03,08,17,35,9.60
2012,03,08,17,36,9.60
2012,03,08,17,37,9.50
2012,03,08,17,38,9.50
2012,03,08,17,39,9.50
2012,03,08,17,40,9.50
2012,03,08,17,41,9.50
2012,03,08,17,42,9.50
2012,03,08,17,43,9.50
2012,03,08,17,44,9.40
2012,03,08,17,45,9.40
2012,03,08,17,46,9.40
2012,03,08,17,47,9.40
2012,03,08,17,48,9.40
2012,03,08,17,49,9.30
2012,03,08,17,50,9.30
2012,03,08,17,51,9.30
2012,03,08,17,52,9.30
2012,03,08,17,53,9.30
2012,03,08,17,54,9.30